www.pogodaiklimat.ru
ПОГОДА в Большом Голоустном

Архив погоды в Большом Голоустном (Иркутская область, Россия)

Время
(UTC), дата
15 25.11
18 25.11
21 25.11
00 26.11
03 26.11
06 26.11
09 26.11
12 26.11
15 26.11
18 26.11
21 26.11
00 27.11
03 27.11
06 27.11
09 27.11
12 27.11
15 27.11
18 27.11
21 27.11
00 28.11
03 28.11
06 28.11
09 28.11
12 28.11
15 28.11
18 28.11
21 28.11
00 29.11
03 29.11
06 29.11
09 29.11
12 29.11
15 29.11
18 29.11
21 29.11
00 30.11
03 30.11
06 30.11
09 30.11
12 30.11
15 30.11
18 30.11
21 30.11
00 1.12
03 1.12
06 1.12
09 1.12
12 1.12
15 1.12
18 1.12
21 1.12
00 2.12
03 2.12
06 2.12
09 2.12
Ветер
(напр.,м/с)
Видим. Явления Облачность Т
(С)
Тd
(С)
f
(%)
Тe
(С)
Тes
(С)
Комфортность P
(гПа)
Po
(гПа)
Тmin
(С)
Tmax
(С)
R
(мм)
R24
(мм)
S
(см)
С 1 н/о 3/0
[Ac lent Cc]
-7.2 -8.7 89 -10 -10 1018.2 960.0
С 1 н/о 3/0
[Cc]
-8.7 -10.2 89 -11 -11 1015.7 957.3
штиль 0 н/о 10/0
[Cc]
-3.2 -8.3 68 -4 -4 1013.1 956.0
С 1 50 км 9/0
[Ac lent Cc]
-2.9 -7.6 70 -5 -5 1011.6 954.7 -9.1 <0.5
ЮЗ 1 50 км 9/0
[Ac lent Cc]
-0.9 -4.9 74 -3 -3 1009.7 953.3
В 6-10
{11}
50 км 9/0
[Ac lent Cc]
+1.1 -4.9 64 -5 -5 1007.9 952.0
С 2
{11}
50 км 10/0
[Ac lent]
+0.6 -3.7 73 -3 -3 1008.0 952.0
С 3 н/о 9/0
[Ac lent Cc]
-1.5 -5.3 75 -6 -6 1014.1 957.3 +3.5
СЗ 14-24
{24}
н/о слаб. ливневой снег {метель} 10/10 600 м
[Cb cap]
+0.6 -4.2 70 -8 -8 1020.7 964.0
СЗ 8-17
{24}
н/о ливневой снег {метель} 10/10 600 м
[Cb cap]
-3.0 -8.3 67 -11 -11 1025.7 968.0
С 10-18
{24}
н/о в посл. час ливневой снег {метель} 10/5 600 м
[Cb cap Ac lent]
-5.1 -12.3 57 -14 -14 1030.5 972.0
С 8-15
{18}
20 км {ливн. снег, метель} 10/3 600 м
[Cb cap Ac lent]
-6.7 -14.2 55 -15 -15 1033.7 974.7 -6.7 0.0 0
С 8-11
{16}
50 км 10/1 600 м
[Cu hum Ac lent]
-7.2 -13.6 60 -16 -16 1036.6 977.3 -7.2
С 7-10
{13}
50 км 9/0
[Ac lent Cc]
-6.7 -16.1 47 -15 -15 1037.9 978.7
С 4
{12}
50 км 9/0
[Ac lent Cc]
-7.5 -17.1 46 -14 -14 1039.5 980.0
С 3 н/о 9/0
[Ac lent Cc]
-9.0 -16.2 56 -15 -15 1041.2 981.3 -6.3
Ю 2 н/о 9/0
[Cc]
-10.8 -15.9 66 -15 -15 1041.6 981.3
С 5 н/о ясно -13.5 -17.1 74 -22 -22 1042.3 981.3
С 7
{11}
н/о ясно -15.5 -18.9 75 -26 -26 1041.4 980.0
С 7
{11}
50 км 6/3 600 м
[Cb cap Ci sp]
-16.9 -20.3 75 -28 -28 1040.4 978.7 -17.6 0
С 8-10
{13}
50 км {ливн. снег} 6/6 600 м
[Cu Sc]
-16.9 -20.7 72 -28 -28 1037.5 976.0 -19.0
С 3
{11}
50 км {ливн. снег} 4/3 600 м
[Cu Sc Ci sp]
-9.2 -15.7 59 -15 -14 1031.4 972.0
СЗ 1 50 км 10/0
[Ac lent Cc]
-9.2 -13.1 73 -11 -11 1030.0 970.7
С 5 н/о 10/0
[Ac As]
-8.3 -12.6 71 -16 -16 1031.2 972.0 -6.6 0.0
С 5 н/о н/о -11.1 -15.3 71 -19 -19 1031.8 972.0
С 6 н/о 3/0
[Ac lent Cc]
-11.4 -14.6 77 -20 -20 1031.9 972.0
СЗ 5 н/о 9/0
[Ac lent]
-5.6 -11.1 65 -13 -13 1031.9 973.3
С 2
{11}
10 км слаб. ливневой снег 9/4 600 м
[Cb cap Ac lent]
-7.9 -12.0 72 -12 -12 1032.5 973.3 -12.3 0.0 0
С 4 50 км 8/0
[Ac lent Cc]
-9.6 -12.5 79 -17 -16 1034.3 974.7
З 2 50 км 8/0
[Ac lent Ci sp]
-3.7 -10.5 59 -7 -7 1031.5 973.3
З 2 50 км 8/1 600 м
[Cu hum Ac lent Cc]
-3.4 -10.0 60 -7 -7 1031.4 973.3
З 3 н/о 6/3 600 м
[Cu hum Ac lent]
-4.5 -10.3 64 -10 -10 1031.7 973.3 -1.2
З 2 н/о 6/0
[Cc]
-4.6 -11.4 59 -8 -8 1031.7 973.3
С 2 н/о 8/3 600 м
[Sc Ac trans Ci sp]
-7.3 -11.5 72 -12 -12 1032.3 973.3
З 2 н/о 10/8 600 м
[Cb cap Ac lent]
-3.0 -9.2 62 -7 -7 1030.0 972.0
С 3 50 км 6/1 600 м
[Cu hum Ac lent Cc]
-5.9 -9.1 78 -11 -11 1030.6 972.0 -8.4 0
С 4 50 км 8/1 600 м
[Cu Sc Ac lent Cc]
-6.0 -9.5 76 -12 -12 1030.6 972.0
С 3 50 км 8/1 600 м
[Cu hum Ac lent Cc]
-1.2 -8.4 58 -6 -5 1028.2 970.7
С 2 50 км 9/3 600 м
[Cu hum Ac lent Cc]
-1.2 -8.0 60 -5 -5 1026.7 969.3
С 5 н/о 9/0
[Ac lent Cc]
-3.9 -9.3 66 -11 -11 1027.3 969.3 +0.3
С 5 н/о ясно -5.8 -10.0 72 -13 -13 1026.4 968.0
С 5 н/о 3/0
[Ac lent]
-6.8 -10.8 73 -14 -14 1025.2 966.7
С 7 н/о 1/0
[Ac lent]
-7.9 -11.9 73 -17 -17 1024.0 965.3
С 6
{10}
50 км 3/0
[Ac lent]
-8.8 -13.3 70 -17 -17 1022.8 964.0 -10.3 0
С 6
{11}
50 км 1/0
[Ac lent]
-7.1 -13.1 62 -15 -15 1021.0 962.7
ЮЗ 3 50 км 9/0
[Ac lent Cc]
+7.0 -12.7 23 +5 +5 1016.6 961.3
С 6-14
{14}
50 км 10/0
[Ac lent]
+3.6 -12.8 29 -1 -1 1017.3 961.3
СЗ 8-13
{19}
н/о 10/10 600 м
[Cb cap]
+1.1 -6.5 57 -6 -6 1019.2 962.7 +7.3
СЗ 5
{22}
н/о слаб. ливневой снег 10/10 600 м
[Cb cap]
-1.0 -4.3 78 -7 -7 1021.0 964.0
З 2
{20}
н/о слаб. ливневой снег {метель} 10/10 600 м
[Cb cap]
-1.9 -6.3 72 -6 -6 1022.6 965.3
СЗ 2
{16}
н/о 9 баллов -2.4 -7.3 69 -6 -6 1024.2 966.7
С 1 н/о слаб. ливневой снег {метель} 10/10 600 м
[Cb cap]
-4.2 -5.3 92 -7 -7 1026.0 968.0 -4.3 1 3
З 2 10 км 10 баллов -2.0 -6.4 72 -6 -6 1025.5 968.0 -4.4
ЮЗ 2 50 км 10 баллов +0.3 -7.0 58 -3 -3 1023.6 966.7
СЗ 2 50 км 9 баллов -1.5 -6.4 69 -5 -5 1022.5 965.3
Местоположение метеостанции Большое Голоустное (Иркутская область, Россия): широта 52.03 долгота 105.40 высота над уровнем моря 461 м.
В архиве по умолчанию представлена погода в Большом Голоустном за последнюю неделю. Архивные данные за месяц целиком и за предыдущие месяцы, начиная с января 2011 года, Вы можете получить, выбрав интересующий диапазон дат из раскрывающегося списка и нажав кнопку "Найти!".
*Определитесь, кто Вы:
Внимание! Время в таблицах - всемирное. Для получения местного времени необходимо прибавить поправку, которая равна 8 ч.
Смотрите также архив погоды в соседних городах и на ближайших метеорологических станциях:
Партнеры нашего сайта:      
Пояснения к столбцам:
  • Ветер - указаны скорость ветра в м/с - средняя за 10 мин, порывы в срок и между сроками (в фигурных скобках) и направление, откуда дует ветер: С - северный,
  • СВ - северо-восточный, В - восточный, ЮВ - юго-восточный, Ю - южный, ЮЗ - юго-западный, З - западный, СЗ - северо-западный.
  • Видимость - горизонтальная дальность видимости в метрах или километрах. При видимости от 1 до 10 км при отсутствии осадков обычно наблюдается дымка, при ухудшении видимости до 1 км и менее - туман. В сухую погоду видимость может ухудшаться дымом, пылью или мглою.
  • Явления - указаны атмосферные явления, наблюдавшиеся в срок или в последний час перед сроком; фигурными скобками обозначены явления, наблюдавшиеся между сроками (за 1-3 часа до срока); квадратными скобками обозначены град или гололедные отложения с указанием их диаметра в мм.
  • Облачность - указаны через наклонную черту общая и нижняя облачность в баллах и высота нижней границы облаков в метрах; квадратными скобками обозначены формы облаков: Ci - перистые, Cs - перисто-слоистые, Cc - перисто-кучевые, Ac - высококучевые, As - высокослоистые, Sc - слоисто-кучевые, Ns - слоисто-дождевые, Cu - кучевые, Cb - кучево-дождевые. Подробнее классификацию облаков см. в Атласе облаков (PDF).
  • T - Температура воздуха - температура, измеренная на высоте 2 м над землей.
  • Td - Температура точки росы - температура, при понижении до которой содержащийся в воздухе водяной пар достигнет насыщения.
  • f - Относительная влажность воздуха - влажноcть воздуха, измеренная на высоте 2 м над землей.
  • Te - Эффективная температура - температура, которую ощущает одетый по сезону человек в тени. Характеристика душности погоды. При расчете учитывается влияние влажности воздуха и скорости ветра на теплоощущения человека.
  • Tes - Эффективная температура на солнце - температура, которую ощущает человек, с поправкой на солнечный нагрев. Характеристика знойности погоды. Зависит от высоты солнца над горизонтом, облачности и скорости ветра. Ночью, в пасмурную погоду, а также при ветре 12 м/с и более поправка равна нулю.
  • P - Атмосферное давление - приведенное к уровню моря атмосферное давление.
  • Po - Атмосферное давление - измеренное на уровне метеостанции атмосферное давление.
  • Tmin - Минимальная температура - минимум температуры воздуха на высоте 2 м над землей.
  • Tmax - Максимальная температура - максимум температуры воздуха на высоте 2 м над землей.
  • R - Количество осадков - Количество выпавших осадков за период времени, мм. При наведении курсора мыши на число - период времени, за который выпало указанное количество осадков.
  • R24 - Количество осадков - Количество выпавших осадков за 24 часа, мм.
  • S - Снежный покров - Высота снежного покрова, см. При наведении курсора мыши на число - состояние снежного покрова и степень покрытия местности в баллах.